Hourly Data Report for August 25, 2019

QUALICUM BEACH AIRPORT
BRITISH COLUMBIA
Current Station Operator: ECCC - MSC

49°20'14.000" N
124°23'38.000" W
58.20 m
1026562
71766
VOQ

Download Data

Hourly Data (August 2019)
Hourly Data Report for August 25, 2019
TIME
LST
Temp Definition
°C
Dew Point Definition
°C
Rel Hum Definition
%
Precip. Amount Definition
mm

Wind Dir Definition
10's deg

Wind Spd Definition
km/h
Visibility Definition
km
Stn Press Definition
kPa
Hmdx Definition


Wind Chill Definition


Weather Definition


00:00 17.1 12.2 73 0.0 29 6   101.03     LegendNANA
01:00 17.0 12.2 73 0.0 29 8   101.04     LegendNANA
02:00 16.6 11.6 73 0.0 30 11   101.07     LegendNANA
03:00 16.4 11.9 75 0.0 30 9   101.11     LegendNANA
04:00 15.9 11.6 76 0.0 31 11   101.16     LegendNANA
05:00 15.4 11.7 78 0.0 28 8   101.20     LegendNANA
06:00 14.7 10.8 78 0.0 29 9   101.27     LegendNANA
07:00 15.6 10.2 70 0.0 32 19   101.34     LegendNANA
08:00 15.8 9.7 67 0.0 31 17   101.39     LegendNANA
09:00 17.1 8.9 58 0.0 30 15   101.45     LegendNANA
10:00 18.2 9.0 55 0.0 31 15   101.47     LegendNANA
11:00 18.4 9.8 57 0.0 35 6   101.49     LegendNANA
12:00 18.4 10.5 60 0.0 35 8   101.49     LegendNANA
13:00 20.0 10.2 53 0.0 35 12   101.52     LegendNANA
14:00 20.5 9.5 49 0.0 35 13   101.52     LegendNANA
15:00 20.7 8.7 46 0.0 1 8   101.54     LegendNANA
16:00 21.2 9.3 47 0.0 30 9   101.52     LegendNANA
17:00 20.9 8.8 46 0.0 35 6   101.52     LegendNANA
18:00 20.7 9.0 47 0.0 32 6   101.51     LegendNANA
19:00 18.9 9.2 53 0.0 30 3   101.52     LegendNANA
20:00 15.9 9.9 67 0.0 27 4   101.59     LegendNANA
21:00 14.7 9.9 73 0.0 25 4   101.61     LegendNANA
22:00 14.2 10.1 77 0.0 26 4   101.63     LegendNANA
23:00 14.1 10.2 77 0.0 28 2   101.63     LegendNANA

Notes on Data Quality.

Legend

  • E = Estimated
  • M = Missing
  • NA = Not Available*
  • [empty] = Indicates an unobserved value
Date modified: